User: anonymous   Login
Location: Unspecified
(0.0000°N, 0.0000°E)
Time: 09:22:51
(UTC+00:00)
Language:

YUBELEINY 2 - Orbit

View from above orbital plane
View from above orbital plane
View from above satellite
View from above satellite

Ground track
Ground track

The orbit data is extracted from the following two-line orbital elements,

1 38735U 12041C   19287.74625149 +.00000008 +00000-0 -15294-4 0  9993
2 38735 082.4760 154.5027 0017350 341.3400 018.7038 12.42579063327211
Epoch (UTC): 14 October 2019 17:54:36
Eccentricity: 0.0017350
inclination: 82.4760°
perigee height: 1482 km
apogee height: 1509 km
right ascension of ascending node: 154.5027°
argument of perigee: 341.3400°
revolutions per day: 12.42579063
mean anomaly at epoch: 18.7038°
orbit number at epoch: 32721

The dashed part of the orbit path shows where the satellite is in the earth's shadow,  

DLR